This demonstration page uses our WeatherBlox Daily Observations layout. Learn more.

39.92423, -83.80882

Hourly Observations for June 26, 2020

Temp ( °F °C ) Dew Point ( °F °C ) Humidity (%) Winds ( mph kmh ) Pressure ( in mb ) Visibility ( mi km ) Precip ( " mm )
12:56 am 00:56 Clear 68 20 59 15 73 73 SW 6 9 30.05 1018 10 16.0934 0 0
1:56 am 01:56 Partly Cloudy 67 19.4 59 15 76 76 SW 6 9 30.05 1018 10 16.0934 0 0
2:56 am 02:56 Partly Cloudy 66 18.9 60 15.6 81 81 SW 8 13 30.06 1018 10 16.0934 0 0
3:56 am 03:56 Mostly Clear 65 18.3 59 15 81 81 SW 7 11 30.06 1018 10 16.0934 0.1 2.54
4:56 am 04:56 Clear 65 18.3 59 15 81 81 SSW 5 7 30.06 1018 10 16.0934 0 0
5:56 am 05:56 Clear 65 18.3 60 15.6 84 84 SSW 7 11 30.05 1018 10 16.0934 0 0
6:56 am 06:56 Cloudy 67 19.4 61 16.1 81 81 SW 9 15 30.06 1018 10 16.0934 0 0
7:56 am 07:56 Cloudy 69 20.6 62 16.7 78 78 SW 9 15 30.07 1018 10 16.0934 0 0
8:56 am 08:56 Mostly Cloudy 71 21.7 63 17.2 76 76 WSW 7 11 30.08 1019 10 16.0934 0.01 0.254
9:56 am 09:56 Sunny 77 25 65 18.3 66 66 WSW 12 19 30.07 1018 10 16.0934 0 0
10:56 am 10:56 Sunny 79 26.1 66 18.9 65 65 WSW 10 17 30.06 1018 10 16.0934 0 0
11:56 am 11:56 Sunny 80 26.7 67 19.4 64 64 SW 12 19 30.04 1017 10 16.0934 0 0
12:56 pm 12:56 Partly Cloudy 83 28.3 68 20 61 61 WSW 9 15 30.03 1017 10 16.0934 0 0
1:56 pm 13:56 Partly Cloudy 85 29.4 69 20.6 59 59 SW 9 15 30.02 1017 10 16.0934 0 0
2:56 pm 14:56 Mostly Sunny 84 28.9 69 20.6 61 61 WSW 22 35 30.01 1016 10 16.0934 0 0
3:56 pm 15:56 Mostly Cloudy 80 26.7 70 21.1 71 71 WSW 15 24 30.01 1016 10 16.0934 0 0
4:56 pm 16:56 Cloudy 77 25 70 21.1 79 79 SW 13 20 30 1016 10 16.0934 0 0
5:56 pm 17:56 Mostly Sunny 78 25.6 71 21.7 79 79 SW 16 26 29.98 1015 10 16.0934 0.001 0.001
6:56 pm 18:56 Partly Cloudy 80 26.7 71 21.7 74 74 SW 12 19 29.97 1015 10 16.0934 0 0
7:56 pm 19:56 Sunny 80 26.7 71 21.7 74 74 SSW 8 13 29.95 1014 10 16.0934 0 0
8:56 pm 20:56 Sunny 78 25.6 71 21.7 79 79 SSW 8 13 29.93 1014 10 16.0934 0 0
9:56 pm 21:56 Clear 77 25 71 21.7 82 82 SSW 10 17 29.92 1013 10 16.0934 0 0
10:56 pm 22:56 Clear 76 24.4 70 21.1 82 82 SW 12 19 29.93 1014 10 16.0934 0 0
11:56 pm 23:56 Clear 76 24.4 70 21.1 82 82 SW 9 15 29.92 1013 10 16.0934 0 0

Powered by AerisWeather